Location: Unspecified
(49.2170°N, 0.0000°E)
Time: 10:10:40
(UTC+00:00)

Vanguard 1 - Visible Passes

Search period start: 24 January 2021 00:00
Search period end: 03 February 2021 00:00
Orbit: 648 x 3834 km, 34.3° (Epoch: 23 January)

Date Brightness Start Highest point End Pass type
(mag) Time Alt. Az. Time Alt. Az. Time Alt. Az.
24 Jan 13.7 16:53:27 10° W 17:14:48 48° SSW 17:32:44 10° SE visible
24 Jan 13.7 19:20:23 10° W 19:37:03 27° SW 19:50:00 10° S visible
25 Jan 13.7 17:14:37 10° W 17:35:29 44° SSW 17:52:56 10° SE visible
25 Jan 13.8 19:42:44 10° W 19:57:05 22° SW 20:08:40 10° S visible
26 Jan 13.8 17:35:56 10° W 17:56:02 39° SSW 18:12:53 10° SSE visible
26 Jan 14.0 20:06:00 10° W 20:16:58 16° SW 20:26:19 10° SSW visible
27 Jan 13.9 17:57:25 10° W 18:16:26 34° SW 18:32:32 10° SSE visible
27 Jan 14.2 20:32:08 10° WSW 20:36:43 11° WSW 20:41:01 10° SW visible
28 Jan 13.9 18:19:10 10° W 18:36:43 29° SW 18:51:46 10° S visible
29 Jan 14.1 18:41:23 10° W 18:56:51 23° SW 19:10:25 10° S visible
30 Jan 14.3 19:04:25 10° W 19:16:51 18° SW 19:28:07 10° SSW visible
31 Jan 14.1 16:57:08 10° W 17:15:38 35° SW 17:33:31 10° SSE visible
31 Jan 14.4 19:29:33 10° WSW 19:36:46 12° WSW 19:43:35 10° SW visible
01 Feb 14.2 17:18:48 10° W 17:36:02 29° SW 17:52:42 10° S visible
02 Feb 14.4 17:40:54 10° W 17:56:19 24° SW 18:11:17 10° S visible
